Miscellaneous Local Product
Issued by NWS North Platte, NE

Home | Current Version | Previous Version | Text Only | Print | Product List | Glossary On
Versions: 1 2 3 4 5 6 7 8 9 10 11 12 13 14 15 16 17 18 19 20 21 22 23 24 25 26 27 28 29 30 31 32 33 34 35 36 37 38 39 40 41 42 43 44 45 46 47 48 49 50
540
AXUS43 KLBF 300010
MISLBF


WESTERN AND NORTH CENTRAL NEBRASKA HOURLY WEATHER ROUNDUP
NATIONAL WEATHER SERVICE NORTH PLATTE NE
700 PM CDT MON MAY 29 2017

NOTE: "FAIR" INDICATES FEW OR NO CLOUDS BELOW 12,000 FEET WITH NO
SIGNIFICANT WEATHER AND/OR OBSTRUCTIONS TO VISIBILITY.

NOTE: STATIONS NOT REPORTING VARIABLES SUCH AS SKY/WEATHER OR
PRESSURE ARE PROVIDED BY RAWS AND APRS NETWORKS AND ARE NOT UNDER
NATIONAL WEATHER SERVICE QUALITY CONTROL.

...OBSERVATIONS IN AND NEAR THE EASTERN PANHANDLE OF NEBRASKA...

CITY           SKY/WX    TMP DP  RH WIND       PRES   REMARKS
PINE RIDGE     SUNNY     67  34  29 NW7       30.10F
GORDON         FAIR      67  33  28 N9        30.10F
CHADRON        SUNNY     68  41  37 NE8       30.09F
ALLIANCE       SUNNY     68  30  24 NW15G24   30.10F
SIDNEY         PTSUNNY   68  38  33 N15G21    30.14S
$$

...OBSERVATIONS IN NORTHERN NEBRASKA AND FAR SOUTHERN SOUTH DAKOTA...

CITY           SKY/WX    TMP DP  RH WIND       PRES   REMARKS
WINNER         FAIR      68  37  32 N12       30.03F
VALENTINE      SUNNY     70  31  23 NW14G23   30.06F
THEDFORD       SUNNY     70  35  28 N12       30.07F
AINSWORTH      MOSUNNY   66  36  32 NW12G23   30.06F
O`NEILL        PTSUNNY   68  32  25 NW16G23   30.04F
ORD            SUNNY     69  35  28 NW15      30.04F
BROKEN BOW     SUNNY     72  34  24 N16       30.06F
VALENTINE NWR    N/A     68  30  24 NW13G22     N/A
HALSEY           N/A     72  32  23 NW7G20      N/A
BUTTE            N/A     65  40  39 NW10G18     N/A
CHAMBERS         N/A     74  42  31 CALM        N/A
EWING            N/A     66  40  39 NW9         N/A
$$

...OBSERVATIONS IN SOUTHWEST NEBRASKA AND FAR NORTHEAST COLORADO...

CITY           SKY/WX    TMP DP  RH WIND       PRES   REMARKS
WRAY           MOCLDY    72  36  26 NW7       30.11S
IMPERIAL       SUNNY     72  36  26 N15       30.08F
OGALLALA       SUNNY     74  34  23 NW13G18   30.08F
NORTH PLATTE   SUNNY     73  37  27 N7        30.06F
MCCOOK         MOSUNNY   75  38  26 N12       30.05F
LEXINGTON      SUNNY     74  33  22 N14       30.06S
STAPLETON        N/A     71  38  30 CALM        N/A
GOTHENBURG       N/A     73  28  19 NW12        N/A
CALLAWAY         N/A     71  31  22 NW17        N/A
$$

...OBSERVATIONS IN CENTRAL LINCOLN COUNTY AREA...

CITY           SKY/WX    TMP DP  RH WIND       PRES   REMARKS
N.P. AIRPORT   SUNNY     73  37  27 N7        30.06F
N.P. DOWNTOWN    N/A     73  37  26 N5          N/A
N.P. SOUTHEAST   N/A     73  35  25 N5G14       N/A
N.P. HILLCREST   N/A     72  34  25 N10G17      N/A
$$

...SOME OBSERVATIONS FROM AROUND THE REGION...

CITY           SKY/WX    TMP DP  RH WIND       PRES   REMARKS
DENVER         CLOUDY    63  44  50 SE7       30.21S
LIMON          RAIN      49  48  97 NW13      30.27R FOG
ASPEN          CLOUDY    67  24  19 NW9       30.21S
LARAMIE        CLOUDY    60  32  34 NW8       30.24F
CASPER         PTSUNNY   66  40  38 NE9       30.19S
CHEYENNE       PTSUNNY   59  40  49 SE3       30.21F
SCOTTSBLUFF    SUNNY     71  32  23 N22       30.12F
GRAND ISLAND   SUNNY     72  37  28 N15G24    30.05F
OMAHA          MOSUNNY   72  39  30 NW20      29.98S
SIOUX FALLS    PTSUNNY   62  46  55 NW15G22   29.98S
PIERRE         SUNNY     69  30  23 NW24G30   29.99F
RAPID CITY     SUNNY     68  28  22 N20G28    30.08F
BISMARCK       PTSUNNY   66  37  34 N13G25    30.00F
KANSAS CITY    MOSUNNY   76  47  35 W7        29.98S
HILL CITY      MOSUNNY   76  44  32 W5        30.06F
WICHITA        MOSUNNY   82  48  30 NW12      29.99F
DODGE CITY     SUNNY     78  43  28 NE12      30.07F
OKLAHOMA CITY  PTSUNNY   84  48  28 S3        29.98F
DALLAS         MOSUNNY   86  53  32 E8        29.97F
AMARILLO       CLOUDY    77  37  23 E16       30.09S
$$




USA.gov is the U.S. government's official web portal to all federal, state and local government web resources and services.